Location: ????????
(55.3975°N, 38.2844°E)
Time: 05:26:07
(UTC+00:00)

BlueWalker 3 - Pass Details

Date: 18 August 2024
Orbit: 476 x 487 km, 53.2° (Epoch: 08 September)

Event Time Altitude Azimuth Distance (km) Brightness Sun altitude
Exits shadow 23:47:46 25° 260° (W) 1,025 3.1 -16.1°
Maximum altitude 23:49:46 60° 188° (S) 569 1.9 -15.9°
Drops below altitude 10° 23:53:32 10° 108° (ESE) 1,686 4.8 -15.6°
Sets 23:55:44 0° 105° (ESE) 2,568 5.8 -15.4°
